Home > Weather > Flensburg > Past weeks

Flag for Germany Past Weather in Flensburg, Schleswig-Holstein, Germany — Yesterday and Last 2 Weeks

Now
82 °F

Passing clouds.


Feels Like: 84 °F
Forecast: 56 / 72 °F
Wind: 14 mph from Northwest

Location: Soenderborg Lufthavn

Current Time: Aug 26, 2016 at 3:58:10 PM

Latest Report: Aug 26, 2016 at 3:20 PM


Visibility: N/A

Pressure: 29.95 "Hg

Humidity: 55%

Dew Point: 64 °F

Location of FlensburgLocation

Past Weather in Flensburg — Graph

°F

Flensburg Temperature Yesterday

Maximum temperature yesterday: 81 °F (at 4:50 PM)
Minimum temperature yesterday: 63 °F (at 4:50 AM)
Average temperature yesterday: 71 °F

High & Low Weather Summary for the Past Weeks

 TemperatureHumidityPressure
High84 °F (Aug 26, 11:40 AM)100% (Aug 12, 5:20 AM)30.30 "Hg (Aug 12, 5:20 AM)
Low50 °F (Aug 16, 4:20 AM)40% (Aug 17, 3:20 PM)29.77 "Hg (Aug 20, 6:50 AM)
Average63 °F79%30.03 "Hg
* Reported Aug 11 2:21 PM — Aug 26 2:20 PM, Flensburg, Weather by CustomWeather, © 2016

Note: Actual official high and low records may vary slightly from our data, if they occured in-between our weather recording intervals... More about our weather records

Advertising

Flensburg Weather History for the Previous 24 Hours

Scroll right to see more
 ConditionsComfort  
Time TempWeatherWind HumidityBarometerVisibility
2:20 PM
Fri, Aug 26
82 °FPassing clouds.10 mph48%29.95 "HgN/A
1:50 PM82 °FPassing clouds.12 mph48%29.95 "HgN/A
1:36 PM82 °FSunny.9 mph51%29.95 "Hg6 mi
12:51 PM82 °FSunny.13 mph58%29.92 "Hg6 mi
12:20 PM82 °FPassing clouds.9 mph51%29.92 "HgN/A
11:40 AM84 °FPassing clouds.7 mph48%29.89 "HgN/A
10:50 AM79 °FPassing clouds.8 mph54%29.89 "HgN/A
10:20 AM77 °FPassing clouds.7 mph57%29.89 "HgN/A
9:50 AM75 °FPassing clouds.7 mph57%29.89 "HgN/A
9:20 AM73 °FPassing clouds.6 mph61%29.89 "HgN/A
8:50 AM72 °FPassing clouds.6 mph65%29.89 "HgN/A
8:20 AM70 °FPassing clouds.5 mph64%29.89 "HgN/A
7:50 AM68 °FSunny.No wind78%29.89 "Hg10 mi
7:20 AM64 °FSunny.2 mph83%29.89 "Hg10 mi
6:50 AM63 °FClear.2 mph83%29.89 "Hg10 mi
6:20 AM61 °FClear.3 mph88%29.89 "Hg10 mi
5:50 AM63 °FClear.3 mph83%29.89 "Hg10 mi
5:20 AM64 °FMild.6 mph78%29.89 "HgN/A
4:50 AM64 °FMild.5 mph83%29.89 "HgN/A
4:20 AM64 °FMild.5 mph83%29.92 "HgN/A
3:50 AM64 °FMild.6 mph83%29.92 "HgN/A
3:20 AM66 °FMild.5 mph78%29.92 "HgN/A
2:50 AM64 °FMild.6 mph83%29.92 "HgN/A
2:20 AM64 °FMild.6 mph83%29.92 "HgN/A
1:50 AM66 °FMild.5 mph78%29.95 "HgN/A
1:20 AM66 °FMild.9 mph78%29.95 "HgN/A
12:50 AM66 °FMild.9 mph78%29.95 "HgN/A
12:20 AM68 °FMild.9 mph73%29.95 "HgN/A
11:50 PM
Thu, Aug 25
70 °FMild.10 mph69%29.95 "HgN/A
11:20 PM70 °FMild.9 mph73%29.95 "HgN/A
10:50 PM70 °FMild.8 mph73%29.98 "HgN/A
10:20 PM70 °FClear.8 mph73%29.98 "Hg10 mi
9:50 PM70 °FClear.7 mph73%29.98 "Hg10 mi
9:20 PM70 °FSunny.7 mph78%29.98 "Hg10 mi
8:50 PM72 °FSunny.7 mph73%29.98 "Hg10 mi
8:20 PM72 °FSunny.7 mph73%29.98 "Hg10 mi
7:54 PM73 °FSunny.7 mph69%29.98 "Hg10 mi
7:20 PM77 °FSunny.8 mph65%29.98 "Hg10 mi
6:20 PM81 °FSunny.9 mph58%30.01 "Hg10 mi
5:57 PM79 °FSunny.10 mph65%30.01 "Hg10 mi
5:20 PM79 °FSunny.12 mph65%30.01 "Hg10 mi
4:50 PM81 °FSunny.13 mph58%30.01 "Hg10 mi
3:50 PM79 °FSunny.14 mph61%30.04 "Hg10 mi
Weather by CustomWeather, © 2016

See weather overviewHow to use our weather pages